Pine Ridge, SD

9:32 PM MDT on June 23, 2017 (GMT -0600)
Pine Ridge

Weather History for KIEN - March, 2013

Change the Weather History Date:

Sunday, March 10, 2013

  Actual Average Record
Temperature  
Mean Temperature 29 °F 34 °F  
Max Temperature 40 °F 48 °F 75 °F (2012)
Min Temperature 17 °F 21 °F -9 °F (1998)
Degree Days  
Heating Degree Days 36 31  
Month to date heating degree days 292 324  
Since 1 July heating degree days 5393 5674  
Cooling Degree Days 0 0  
Month to date cooling degree days 0 0  
Year to date cooling degree days 0 0  
Moisture  
Dew Point 8 °F    
Average Humidity 50    
Maximum Humidity 80    
Minimum Humidity 20    
Precipitation  
Precipitation 0.00 in 0.02 in 0.15 in (1999)
Month to date precipitation 0.05 0.20  
Year to date precipitation 0.99 0.99  
Sea Level Pressure  
Sea Level Pressure 30.19 in    
Wind  
Wind Speed 10 mph (North)    
Max Wind Speed 23 mph    
Max Gust Speed 30 mph    
Visibility 10 miles    
Events      
T = Trace of Precipitation, MM = Missing Value Source: NWS Daily Summary

Daily Weather History Graph

Daily Weather History Graph

Search for Another Location

Airport or City:

Trip Planner

Search our weather history database for the weather conditions in past years. The results will help you decide how hot, cold, wet, or windy it might be!

Date:

Astronomy

Mar. 10, 2013 Rise Set
Actual Time 7:10 AM MDT 6:50 PM MDT
Civil Twilight 6:42 AM MDT 7:19 PM MDT
Nautical Twilight 6:09 AM MDT 7:52 PM MDT
Astronomical Twilight 5:35 AM MDT 8:25 PM MDT
Moon 6:12 AM MDT (3/10) 6:00 PM MDT (3/10)
Length of Visible Light 12h 37m
Length of Day
11h 40m
Waning Crescent, 1% of the Moon is Illuminated
Mar 10
Waning Crescent
Mar 11
New
Mar 19
First Quarter
Mar 27
Full
Apr 2
Last Quarter

Hourly Weather History & Observations

Time (MDT) Temp. Windchill Dew Point Humidity Pressure Visibility Wind Dir Wind Speed Gust Speed Precip Events Conditions
12:52 AM 27.0 °F 16.1 °F 16.0 °F 63% 30.18 in 10.0 mi NNW 12.7 mph - N/A   Overcast
1:52 AM 26.1 °F 15.0 °F 14.0 °F 60% 30.19 in 10.0 mi North 12.7 mph 20.7 mph N/A   Overcast
3:52 AM 24.1 °F 10.1 °F 12.0 °F 60% 30.19 in 10.0 mi North 18.4 mph 26.5 mph N/A   Overcast
4:52 AM 21.0 °F 8.6 °F 12.0 °F 68% 30.22 in 10.0 mi North 12.7 mph - N/A   Overcast
6:52 AM 19.0 °F 6.1 °F 10.0 °F 68% 30.27 in 10.0 mi North 12.7 mph - N/A   Clear
7:52 AM 19.9 °F 7.9 °F 10.0 °F 65% 30.27 in 10.0 mi North 11.5 mph - N/A   Clear
8:52 AM 23.0 °F 9.2 °F 10.0 °F 58% 30.27 in 10.0 mi North 17.3 mph 29.9 mph N/A   Clear
9:52 AM 25.0 °F 11.3 °F 7.0 °F 46% 30.27 in 10.0 mi NNW 18.4 mph 26.5 mph N/A   Clear
10:52 AM 28.9 °F 16.9 °F 7.0 °F 40% 30.26 in 10.0 mi North 17.3 mph 27.6 mph N/A   Clear
11:52 AM 30.9 °F 20.2 °F 7.0 °F 37% 30.25 in 10.0 mi North 15.0 mph 27.6 mph N/A   Clear
12:52 PM 34.0 °F 23.8 °F 7.0 °F 32% 30.22 in 10.0 mi North 16.1 mph 23.0 mph N/A   Clear
1:52 PM 36.0 °F 26.3 °F 5.0 °F 27% 30.18 in 10.0 mi North 16.1 mph 21.9 mph N/A   Clear
2:52 PM 37.9 °F 29.2 °F 3.9 °F 24% 30.17 in 10.0 mi North 15.0 mph - N/A   Clear
3:52 PM 39.0 °F 34.0 °F 1.9 °F 21% 30.15 in 10.0 mi North 6.9 mph - N/A   Clear
4:52 PM 37.9 °F 35.5 °F 1.9 °F 22% 30.14 in 10.0 mi Variable 3.5 mph - N/A   Clear
5:52 PM 37.0 °F 31.6 °F 1.9 °F 23% 30.14 in 10.0 mi NNW 6.9 mph - N/A   Clear
6:52 PM 32.0 °F 27.5 °F 5.0 °F 32% 30.16 in 10.0 mi NNE 4.6 mph - N/A   Clear
7:52 PM 24.1 °F 18.2 °F 8.1 °F 51% 30.17 in 10.0 mi ENE 4.6 mph - N/A   Clear
8:52 PM 23.0 °F - 10.0 °F 58% 30.14 in 10.0 mi Calm Calm - N/A   Clear
10:52 PM 19.0 °F 12.3 °F 12.0 °F 74% 30.11 in 10.0 mi East 4.6 mph - N/A   Clear
11:52 PM 18.0 °F - 12.0 °F 78% 30.09 in 10.0 mi Calm Calm - N/A   Clear
12:52 AM 18.0 °F - 12.9 °F 81% 30.05 in 10.0 mi Calm Calm - N/A   Clear